Regional Weather Roundup
Issued by NWS

Home | Current Version | Previous Version | Graphics & Text | Print | Product List | Glossary On
Versions: 1 2 3 4 5 6 7 8 9 10 11 12 13 14 15 16 17 18 19 20 21 22 23 24 25 26 27 28 29 30 31 32 33 34 35 36 37 38 39 40 41 42 43 44 45 46 47 48 49 50
000
ASUS43 KIND 262059
RWRIN

WEATHER ROUNDUP FOR INDIANA
NATIONAL WEATHER SERVICE INDIANAPOLIS IN
500 PM EDT THU MAR 26 2015

NOTE: "FAIR" INDICATES FEW OR NO CLOUDS BELOW 12,000 FEET WITH NO
SIGNIFICANT WEATHER AND/OR OBSTRUCTIONS TO VISIBILITY.

* - STATION DOES NOT REPORT WEATHER SUCH AS PRECIPITATION OR FOG.

+ - STATION NOT QUALITY CONTROLLED BY THE NATIONAL WEATHER SERVICE.
    USE DATA WITH CAUTION...ESPECIALLY DEWPOINT AND RELATIVE
    HUMIDITY OBSERVATIONS.

INZ001>003-010>013-019-020-262200-
NORTHWEST INDIANA

CITY           SKY/WX    TMP DP  RH WIND       PRES   REMARKS

$$

LMZ046-743>745-262200-
SOUTHERN LAKE MICHIGAN

STATION/POSITION TIME  TEMP WIND        PRES
                       AIR  DIR/SP/G
                 (UTC) (F)  (DEG/KT/KT) (MB)
BURNS HARBOR     2000   38   40/  5/  6 1014.9R
MICHIGAN CITY    2000   36  320/  4/  4   N/A

$$

INZ004-005-014>016-021>024-262200-
NORTH CENTRAL INDIANA

CITY           SKY/WX    TMP DP  RH WIND       PRES   REMARKS
ELKHART        CLOUDY    39  18  41 NW15G23   29.94R
GOSHEN         PTSUNNY   40  24  53 NW20      29.93R
SOUTH BEND     CLOUDY    40  21  46 NW15      29.95R

$$

INZ006>009-017-018-025>027-262200-
NORTHEAST INDIANA

CITY           SKY/WX    TMP DP  RH WIND       PRES   REMARKS
ANGOLA *+      PTSUNNY   41  28  60 NW10      29.88R
FORT WAYNE     CLOUDY    42  28  57 NW14G23   29.91R

$$

INZ028-029-035-036-043>045-051>053-262200-
WEST CENTRAL INDIANA

CITY           SKY/WX    TMP DP  RH WIND       PRES   REMARKS
CRAWFORDSVL +  CLOUDY    41  28  59 MISG      29.96S
GREENCASTLE +  CLOUDY    41  28  60 NW8       29.97R
LAFAYETTE      CLOUDY    44  30  57 NW13      29.95R
TERRE HAUTE    CLOUDY    44  33  65 NW9       29.98S

$$

INZ030>032-037>040-046>048-054>057-064-065-262200-
CENTRAL INDIANA

CITY           SKY/WX    TMP DP  RH WIND       PRES   REMARKS
FRANKFORT +    CLOUDY    43  33  66 W12       29.96R
GREENWOOD *+   CLOUDY    43  30  61 NW9       29.95S
INDIANAPOLIS   CLOUDY    43  31  62 NW12      29.94R
-EAGLE CREEK   CLOUDY    42  30  62 NW13      29.94R
KOKOMO *+        N/A     43  32  65 W14       29.93R
MT COMFORT *+  CLOUDY    43  25  49 NW10      29.95R
SHELBYVILLE    CLOUDY    44  33  65 NW9       29.94R

$$

INZ033-034-041-042-049-050-058-059-262200-
EAST CENTRAL INDIANA

CITY           SKY/WX    TMP DP  RH WIND       PRES   REMARKS
MUNCIE         CLOUDY    42  32  67 NW10      29.93R

$$

INZ060-061-067>069-081>083-085>088-262200-
SOUTHWEST INDIANA

CITY           SKY/WX    TMP DP  RH WIND       PRES   REMARKS
EVANSVILLE     CLOUDY    44  34  67 NW13      30.00F
HUNTINGBURG *+ CLOUDY    43  34  70 NW9       29.98F

$$

INZ062-063-066-070>080-084-089>092-262200-
SOUTH CENTRAL AND SOUTHEAST INDIANA

CITY           SKY/WX    TMP DP  RH WIND       PRES   REMARKS
BLOOMINGTON    CLOUDY    42  32  67 NW6       29.95F
SEYMOUR +      CLOUDY    45  36  70 NW9       29.95S

$$




USA.gov is the U.S. government's official web portal to all federal, state and local government web resources and services.